Regional Weather Roundup
Issued by NWS Bismarck, ND

Home | Current Version | Previous Version | Text Only | Print | Product List | Glossary On
Versions: 1 2 3 4 5 6 7 8 9 10 11 12 13 14 15 16 17 18 19 20 21 22 23 24 25 26 27 28 29 30 31 32 33 34 35 36 37 38 39 40 41 42 43 44 45 46 47 48 49 50
000
ASUS43 KBIS 050010
RWRBIS

NWR BROADCAST TEXT
NATIONAL WEATHER SERVICE BISMARCK ND
600 PM CST SUN DEC 04 2016

NOTE: "FAIR" INDICATES FEW OR NO CLOUDS BELOW 12,000 FEET WITH NO
SIGNIFICANT WEATHER AND/OR OBSTRUCTIONS TO VISIBILITY.


CITY           SKY/WX    TMP DP  RH WIND       PRES   REMARKS
WILLISTON      PTCLDY    27  21  78 CALM      29.59F
MINOT          CLEAR     20  16  84 SW5       29.63S WCI  13
MINOT AFB      CLEAR     14  11  89 NE1       29.62F
BISMARCK       CLEAR     21  18  88 CALM      29.69S
DICKINSON      CLEAR     22  16  78 S7        29.59F WCI  13
GARRISON         N/A     17  14  88 CALM      29.64R
HETTINGER ARPT CLOUDY    29  22  75 SE6       29.64F
JAMESTOWN      CLEAR     28  24  85 W7        29.66F
BEACH          FAIR      27  19  74 SW10      29.61F WCI  17
CARRINGTON     FAIR      23  21  93 SW5       29.68S WCI  17
HAZEN          FAIR      18  12  79 MISG      29.67F
RUGBY            N/A     23  23 100 NW9       29.63F FOG     WCI  13
STANLEY        FAIR      16  16 100 CALM      29.63S
TIOGA          FAIR      18  18 100 CALM      29.61F
WATFORD CITY   FAIR      19  16  86 CALM      29.60F
$$

CITY           SKY/WX    TMP DP  RH WIND       PRES   REMARKS
GRAND FORKS    FLURRIES  31  27  85 W13       29.65R
GRAND FORKS AF CLOUDY    31  26  82 NW14      29.65R
DEVILS LAKE    CLOUDY    25  23  92 W9        29.64F WCI  15
FARGO          CLEAR     31  26  82 W12       29.69S
CANDO          CLOUDY    25  25 100 NW9       29.66S WCI  15
CAVALIER       FLURRIES  32  28  86 NW10      29.62S
GRAFTON        MOCLDY    32  30  93 W10       29.65R
GWINNER          N/A     32  32 100 SW8       29.71F
LANGDON        CLOUDY    28  27  93 W16       29.61S WCI  17
ROLLA          CLOUDY    23  23 100 NW3       29.62S
WALHALLA         N/A     30  30 100 NW9       29.62R
$$

CITY           SKY/WX    TMP DP  RH WIND       PRES   REMARKS
ABERDEEN       CLEAR     29  25  85 SW8       29.75S
MOBRIDGE       CLEAR     29  23  78 SE5       29.69F
BUFFALO          N/A     36  23  59 S6        29.56F
RAPID CITY     CLOUDY    35  13  40 SW3       29.66F
GLASGOW        CLOUDY    34  30  85 N7        29.50F
SIDNEY         PTCLDY    28  23  81 S3        29.57F
WOLF POINT     PTCLDY    36  25  64 SW6       29.54S
GLENDIVE       CLEAR     30  24  78 S10       29.56F
MILES CITY     PTCLDY    35  22  58 S6        29.56F
BAKER          CLOUDY    30  21  69 S14       29.59F WCI  19
$$

CITY           SKY/WX    TMP DP  RH WIND       PRES   REMARKS
BILLINGS       CLOUDY    41  18  39 SW13      29.52F
GREAT FALLS    FLURRIES  31  27  85 NW17      29.55R WCI  19
REGINA         MOCLDY    19  16  86 SE7       29.57S WCI  10
ESTEVAN        MOCLDY    16  16 100 SE7       29.59F WCI   6
$$





USA.gov is the U.S. government's official web portal to all federal, state and local government web resources and services.